Time,TemperatureF,DewpointF,PressureIn,WindDirection,WindDirectionDegrees,WindSpeedMPH,WindSpeedGustMPH,Humidity,HourlyPrecipIn,Conditions,Clouds,dailyrainin,SoftwareType,DateUTC
2013-02-23 00:03:00,34.0,32.0,-100.00,SSE,155,8.0,11.0,93,-99.99,,,-99.99,,2013-02-23 05:03:00,
2013-02-23 00:12:00,34.0,32.0,-100.00,SSE,155,8.0,11.0,93,-99.99,,,-99.99,,2013-02-23 05:12:00,
2013-02-23 00:22:00,34.0,32.0,-100.00,South,170,9.0,12.0,93,-99.99,,,-99.99,,2013-02-23 05:22:00,
2013-02-23 00:33:00,34.0,32.0,-100.00,South,170,8.0,13.0,92,-99.99,,,-99.99,,2013-02-23 05:33:00,
2013-02-23 00:42:00,34.0,32.0,-100.00,SSE,165,7.0,11.0,91,-99.99,,,-99.99,,2013-02-23 05:42:00,
2013-02-23 00:52:00,34.0,32.0,-100.00,SSE,165,7.0,11.0,90,-99.99,,,-99.99,,2013-02-23 05:52:00,
2013-02-23 01:02:00,34.0,32.0,-100.00,SSE,165,7.0,10.0,90,-99.99,,,-99.99,,2013-02-23 06:02:00,
2013-02-23 01:11:00,34.0,31.0,-100.00,SSE,160,8.0,10.0,89,-99.99,,,-99.99,,2013-02-23 06:11:00,
2013-02-23 01:22:00,34.0,31.0,-100.00,SSE,160,9.0,11.0,89,-99.99,,,-99.99,,2013-02-23 06:22:00,
2013-02-23 01:32:00,34.0,31.0,-100.00,SSE,165,7.0,9.0,89,-99.99,,,-99.99,,2013-02-23 06:32:00,
2013-02-23 01:42:00,34.0,31.0,-100.00,SSE,160,7.0,10.0,89,-99.99,,,-99.99,,2013-02-23 06:42:00,
2013-02-23 01:51:00,34.0,31.0,-100.00,South,170,7.0,9.0,89,-99.99,,,-99.99,,2013-02-23 06:51:00,
2013-02-23 02:01:00,34.0,31.0,-100.00,SSE,165,7.0,9.0,89,-99.99,,,-99.99,,2013-02-23 07:01:00,
2013-02-23 02:11:00,34.0,31.0,-100.00,South,170,7.0,10.0,89,-99.99,,,-99.99,,2013-02-23 07:11:00,
2013-02-23 02:21:00,34.0,31.0,-100.00,South,175,8.0,10.0,89,-99.99,,,-99.99,,2013-02-23 07:21:00,
2013-02-23 02:32:00,34.0,31.0,-100.00,SSE,165,7.0,10.0,89,-99.99,,,-99.99,,2013-02-23 07:32:00,
2013-02-23 02:42:00,34.0,31.0,-100.00,South,175,7.0,10.0,89,-99.99,,,-99.99,,2013-02-23 07:42:00,
2013-02-23 02:51:00,34.0,31.0,-100.00,South,190,7.0,10.0,89,-99.99,,,-99.99,,2013-02-23 07:51:00,
2013-02-23 03:01:00,34.0,31.0,-100.00,SSW,195,8.0,10.0,88,-99.99,,,-99.99,,2013-02-23 08:01:00,
2013-02-23 03:11:00,34.0,31.0,-100.00,SSW,210,8.0,11.0,89,-99.99,,,-99.99,,2013-02-23 08:11:00,
2013-02-23 03:21:00,34.0,32.0,-100.00,SSW,205,11.0,14.0,91,-99.99,,,-99.99,,2013-02-23 08:21:00,
2013-02-23 03:32:00,34.0,32.0,-100.00,SSW,205,11.0,14.0,94,-99.99,,,-99.99,,2013-02-23 08:32:00,
2013-02-23 03:42:00,33.0,32.0,-100.00,SW,215,16.0,21.0,95,-99.99,,,-99.99,,2013-02-23 08:42:00,
2013-02-23 03:52:00,33.0,31.0,-100.00,SW,220,12.0,16.0,95,-99.99,,,-99.99,,2013-02-23 08:52:00,
2013-02-23 04:02:00,32.0,31.0,-100.00,SW,225,11.0,17.0,95,-99.99,,,-99.99,,2013-02-23 09:02:00,
2013-02-23 04:11:00,32.0,31.0,-100.00,SW,220,12.0,15.0,95,-99.99,,,-99.99,,2013-02-23 09:11:00,
2013-02-23 04:32:00,32.0,31.0,-100.00,SSW,200,11.0,16.0,95,-99.99,,,-99.99,,2013-02-23 09:32:00,
2013-02-23 04:51:00,32.0,31.0,-100.00,SSW,200,10.0,14.0,93,-99.99,,,-99.99,,2013-02-23 09:51:00,
2013-02-23 05:01:00,32.0,30.0,-100.00,SW,215,11.0,15.0,92,-99.99,,,-99.99,,2013-02-23 10:01:00,
2013-02-23 05:11:00,32.0,30.0,-100.00,SSW,205,9.0,12.0,92,-99.99,,,-99.99,,2013-02-23 10:11:00,
2013-02-23 05:21:00,32.0,30.0,-100.00,SSW,210,12.0,14.0,90,-99.99,,,-99.99,,2013-02-23 10:21:00,
2013-02-23 05:32:00,32.0,30.0,-100.00,SW,220,11.0,16.0,90,-99.99,,,-99.99,,2013-02-23 10:32:00,
2013-02-23 05:42:00,32.0,29.0,-100.00,WSW,250,9.0,16.0,90,-99.99,,,-99.99,,2013-02-23 10:42:00,
2013-02-23 05:51:00,31.0,29.0,-100.00,SW,235,11.0,14.0,90,-99.99,,,-99.99,,2013-02-23 10:51:00,
2013-02-23 06:02:00,31.0,29.0,-100.00,SW,225,11.0,16.0,90,-99.99,,,-99.99,,2013-02-23 11:02:00,
2013-02-23 06:11:00,31.0,28.0,-100.00,SW,225,11.0,16.0,89,-99.99,,,-99.99,,2013-02-23 11:11:00,
2013-02-23 06:22:00,31.0,29.0,-100.00,SW,225,10.0,16.0,89,-99.99,,,-99.99,,2013-02-23 11:22:00,
2013-02-23 06:32:00,31.0,29.0,-100.00,SW,215,12.0,17.0,89,-99.99,,,-99.99,,2013-02-23 11:32:00,
2013-02-23 06:42:00,31.0,29.0,-100.00,SW,220,12.0,17.0,89,-99.99,,,-99.99,,2013-02-23 11:42:00,
2013-02-23 06:52:00,30.0,27.0,-100.00,SW,235,10.0,19.0,87,-99.99,,,-99.99,,2013-02-23 11:52:00,
2013-02-23 07:02:00,30.0,26.0,-100.00,SW,220,12.0,17.0,82,-99.99,,,-99.99,,2013-02-23 12:02:00,
2013-02-23 07:11:00,30.0,25.0,-100.00,WSW,240,10.0,16.0,80,-99.99,,,-99.99,,2013-02-23 12:11:00,
2013-02-23 07:21:00,30.0,24.0,-100.00,SW,225,15.0,21.0,76,-99.99,,,-99.99,,2013-02-23 12:21:00,
2013-02-23 07:32:00,30.0,24.0,-100.00,SW,225,12.0,21.0,76,-99.99,,,-99.99,,2013-02-23 12:32:00,
2013-02-23 07:42:00,30.0,24.0,-100.00,SW,230,9.0,17.0,77,-99.99,,,-99.99,,2013-02-23 12:42:00,
2013-02-23 07:52:00,30.0,24.0,-100.00,SW,230,9.0,17.0,77,-99.99,,,-99.99,,2013-02-23 12:52:00,
2013-02-23 08:01:00,30.0,23.0,-100.00,SW,225,10.0,16.0,74,-99.99,,,-99.99,,2013-02-23 13:01:00,
2013-02-23 08:11:00,30.0,23.0,-100.00,SW,230,11.0,16.0,74,-99.99,,,-99.99,,2013-02-23 13:11:00,
2013-02-23 08:22:00,30.0,22.0,-100.00,SW,235,9.0,16.0,72,-99.99,,,-99.99,,2013-02-23 13:22:00,
2013-02-23 08:32:00,30.0,22.0,-100.00,SW,225,12.0,16.0,72,-99.99,,,-99.99,,2013-02-23 13:32:00,
2013-02-23 08:42:00,30.0,21.0,-100.00,WSW,240,11.0,17.0,69,-99.99,,,-99.99,,2013-02-23 13:42:00,
2013-02-23 08:52:00,30.0,21.0,-100.00,SW,215,9.0,14.0,69,-99.99,,,-99.99,,2013-02-23 13:52:00,
2013-02-23 09:02:00,30.0,21.0,-100.00,SW,215,12.0,16.0,69,-99.99,,,-99.99,,2013-02-23 14:02:00,
2013-02-23 09:11:00,30.0,21.0,-100.00,SW,220,13.0,19.0,68,-99.99,,,-99.99,,2013-02-23 14:11:00,
2013-02-23 09:21:00,30.0,21.0,-100.00,SW,230,12.0,19.0,68,-99.99,,,-99.99,,2013-02-23 14:21:00,
2013-02-23 09:32:00,30.0,20.0,-100.00,SW,235,15.0,20.0,67,-99.99,,,-99.99,,2013-02-23 14:32:00,
2013-02-23 09:42:00,30.0,21.0,-100.00,SW,215,13.0,19.0,68,-99.99,,,-99.99,,2013-02-23 14:42:00,
2013-02-23 09:52:00,30.0,22.0,-100.00,SW,220,11.0,17.0,68,-99.99,,,-99.99,,2013-02-23 14:52:00,
2013-02-23 10:02:00,30.0,22.0,-100.00,SSW,205,15.0,19.0,70,-99.99,,,-99.99,,2013-02-23 15:02:00,
2013-02-23 10:11:00,30.0,22.0,-100.00,SW,215,14.0,20.0,70,-99.99,,,-99.99,,2013-02-23 15:11:00,
2013-02-23 10:22:00,30.0,22.0,-100.00,SW,215,14.0,20.0,70,-99.99,,,-99.99,,2013-02-23 15:22:00,
2013-02-23 10:32:00,30.0,22.0,-100.00,SSW,210,14.0,19.0,72,-99.99,,,-99.99,,2013-02-23 15:32:00,
2013-02-23 10:42:00,30.0,21.0,-100.00,SW,215,15.0,20.0,69,-99.99,,,-99.99,,2013-02-23 15:42:00,
2013-02-23 10:51:00,30.0,21.0,-100.00,SW,220,12.0,19.0,68,-99.99,,,-99.99,,2013-02-23 15:51:00,
2013-02-23 11:01:00,31.0,21.0,-100.00,SW,235,9.0,18.0,67,-99.99,,,-99.99,,2013-02-23 16:01:00,
2013-02-23 11:11:00,31.0,21.0,-100.00,SSW,205,14.0,22.0,65,-99.99,,,-99.99,,2013-02-23 16:11:00,
2013-02-23 11:21:00,31.0,21.0,-100.00,SW,215,15.0,21.0,66,-99.99,,,-99.99,,2013-02-23 16:21:00,
2013-02-23 11:32:00,31.0,21.0,-100.00,SW,235,13.0,19.0,66,-99.99,,,-99.99,,2013-02-23 16:32:00,
2013-02-23 11:42:00,31.0,22.0,-100.00,SW,215,12.0,17.0,67,-99.99,,,-99.99,,2013-02-23 16:42:00,
2013-02-23 11:51:00,31.0,21.0,-100.00,SW,230,10.0,16.0,67,-99.99,,,-99.99,,2013-02-23 16:51:00,
2013-02-23 12:01:00,31.0,22.0,-100.00,SW,215,13.0,19.0,68,-99.99,,,-99.99,,2013-02-23 17:01:00,
2013-02-23 12:11:00,31.0,22.0,-100.00,WSW,240,10.0,17.0,69,-99.99,,,-99.99,,2013-02-23 17:11:00,
2013-02-23 12:21:00,31.0,22.0,-100.00,SSW,210,14.0,18.0,69,-99.99,,,-99.99,,2013-02-23 17:21:00,
2013-02-23 12:32:00,31.0,22.0,-100.00,SW,215,11.0,19.0,69,-99.99,,,-99.99,,2013-02-23 17:32:00,
2013-02-23 12:42:00,31.0,22.0,-100.00,SW,220,11.0,16.0,69,-99.99,,,-99.99,,2013-02-23 17:42:00,
2013-02-23 12:52:00,31.0,22.0,-100.00,SSW,205,15.0,20.0,68,-99.99,,,-99.99,,2013-02-23 17:52:00,
2013-02-23 13:02:00,32.0,22.0,-100.00,SSW,205,16.0,19.0,67,-99.99,,,-99.99,,2013-02-23 18:02:00,
2013-02-23 13:12:00,31.0,22.0,-100.00,SW,215,17.0,21.0,67,-99.99,,,-99.99,,2013-02-23 18:12:00,
2013-02-23 13:22:00,31.0,22.0,-100.00,SW,215,14.0,21.0,67,-99.99,,,-99.99,,2013-02-23 18:22:00,
2013-02-23 13:32:00,32.0,22.0,-100.00,SW,225,12.0,18.0,67,-99.99,,,-99.99,,2013-02-23 18:32:00,
2013-02-23 13:42:00,31.0,22.0,-100.00,SW,225,11.0,19.0,67,-99.99,,,-99.99,,2013-02-23 18:42:00,
2013-02-23 13:52:00,31.0,22.0,-100.00,SW,225,12.0,17.0,67,-99.99,,,-99.99,,2013-02-23 18:52:00,
2013-02-23 14:01:00,31.0,22.0,-100.00,SW,225,12.0,17.0,67,-99.99,,,-99.99,,2013-02-23 19:01:00,
2013-02-23 14:11:00,31.0,22.0,-100.00,SW,230,11.0,18.0,67,-99.99,,,-99.99,,2013-02-23 19:11:00,
2013-02-23 14:21:00,31.0,22.0,-100.00,SW,220,13.0,16.0,67,-99.99,,,-99.99,,2013-02-23 19:21:00,
2013-02-23 14:32:00,31.0,22.0,-100.00,SW,220,14.0,18.0,67,-99.99,,,-99.99,,2013-02-23 19:32:00,
2013-02-23 14:41:00,32.0,23.0,-100.00,SSW,205,9.0,15.0,69,-99.99,,,-99.99,,2013-02-23 19:41:00,
2013-02-23 14:52:00,32.0,23.0,-100.00,SW,225,9.0,15.0,69,-99.99,,,-99.99,,2013-02-23 19:52:00,
2013-02-23 15:01:00,32.0,23.0,-100.00,WSW,240,12.0,15.0,68,-99.99,,,-99.99,,2013-02-23 20:01:00,
2013-02-23 15:11:00,31.0,22.0,-100.00,SW,230,11.0,14.0,68,-99.99,,,-99.99,,2013-02-23 20:11:00,
2013-02-23 15:21:00,32.0,23.0,-100.00,SW,215,9.0,16.0,69,-99.99,,,-99.99,,2013-02-23 20:21:00,
2013-02-23 15:32:00,32.0,23.0,-100.00,WSW,245,6.0,13.0,69,-99.99,,,-99.99,,2013-02-23 20:32:00,
2013-02-23 15:42:00,32.0,23.0,-100.00,WSW,240,11.0,16.0,68,-99.99,,,-99.99,,2013-02-23 20:42:00,
2013-02-23 15:52:00,32.0,23.0,-100.00,SW,235,9.0,14.0,68,-99.99,,,-99.99,,2013-02-23 20:52:00,
2013-02-23 16:02:00,32.0,23.0,-100.00,SW,235,8.0,12.0,68,-99.99,,,-99.99,,2013-02-23 21:02:00,
2013-02-23 16:11:00,32.0,22.0,-100.00,SW,230,9.0,14.0,67,-99.99,,,-99.99,,2013-02-23 21:11:00,
2013-02-23 16:22:00,32.0,22.0,-100.00,SW,225,11.0,14.0,66,-99.99,,,-99.99,,2013-02-23 21:22:00,
2013-02-23 16:32:00,32.0,22.0,-100.00,SW,225,11.0,14.0,66,-99.99,,,-99.99,,2013-02-23 21:32:00,
2013-02-23 16:42:00,32.0,23.0,-100.00,SW,235,7.0,12.0,68,-99.99,,,-99.99,,2013-02-23 21:42:00,
2013-02-23 16:51:00,32.0,22.0,-100.00,WSW,245,7.0,13.0,68,-99.99,,,-99.99,,2013-02-23 21:51:00,
2013-02-23 17:02:00,31.0,22.0,-100.00,SW,235,8.0,13.0,68,-99.99,,,-99.99,,2013-02-23 22:02:00,
2013-02-23 17:11:00,31.0,22.0,-100.00,SW,215,10.0,14.0,68,-99.99,,,-99.99,,2013-02-23 22:11:00,
2013-02-23 17:22:00,31.0,23.0,-100.00,SW,230,7.0,13.0,69,-99.99,,,-99.99,,2013-02-23 22:22:00,
2013-02-23 17:32:00,31.0,23.0,-100.00,SW,230,9.0,11.0,69,-99.99,,,-99.99,,2013-02-23 22:32:00,
2013-02-23 17:42:00,31.0,23.0,-100.00,WSW,245,7.0,11.0,70,-99.99,,,-99.99,,2013-02-23 22:42:00,
2013-02-23 17:51:00,31.0,22.0,-100.00,WSW,240,7.0,12.0,70,-99.99,,,-99.99,,2013-02-23 22:51:00,
2013-02-23 18:01:00,31.0,23.0,-100.00,WSW,250,7.0,10.0,71,-99.99,,,-99.99,,2013-02-23 23:01:00,
2013-02-23 18:11:00,31.0,23.0,-100.00,WSW,240,6.0,11.0,71,-99.99,,,-99.99,,2013-02-23 23:11:00,
2013-02-23 18:21:00,31.0,23.0,-100.00,SW,225,12.0,14.0,71,-99.99,,,-99.99,,2013-02-23 23:21:00,
2013-02-23 18:32:00,31.0,23.0,-100.00,West,270,8.0,12.0,71,-99.99,,,-99.99,,2013-02-23 23:32:00,
2013-02-23 18:42:00,31.0,23.0,-100.00,WSW,240,7.0,11.0,71,-99.99,,,-99.99,,2013-02-23 23:42:00,
2013-02-23 18:52:00,31.0,22.0,-100.00,WSW,250,8.0,12.0,71,-99.99,,,-99.99,,2013-02-23 23:52:00,
2013-02-23 19:01:00,31.0,23.0,-100.00,WSW,245,10.0,13.0,72,-99.99,,,-99.99,,2013-02-24 00:01:00,
2013-02-23 19:11:00,31.0,23.0,-100.00,SW,235,7.0,11.0,72,-99.99,,,-99.99,,2013-02-24 00:11:00,
2013-02-23 19:22:00,31.0,23.0,-100.00,West,260,6.0,11.0,71,-99.99,,,-99.99,,2013-02-24 00:22:00,
2013-02-23 19:32:00,30.0,22.0,-100.00,WSW,245,7.0,11.0,71,-99.99,,,-99.99,,2013-02-24 00:32:00,
2013-02-23 19:42:00,30.0,23.0,-100.00,WSW,250,6.0,9.0,72,-99.99,,,-99.99,,2013-02-24 00:42:00,
2013-02-23 19:52:00,30.0,23.0,-100.00,WSW,255,6.0,10.0,72,-99.99,,,-99.99,,2013-02-24 00:52:00,
2013-02-23 20:01:00,30.0,23.0,-100.00,WSW,240,8.0,10.0,72,-99.99,,,-99.99,,2013-02-24 01:01:00,
2013-02-23 20:11:00,30.0,23.0,-100.00,SW,220,6.0,10.0,73,-99.99,,,-99.99,,2013-02-24 01:11:00,
2013-02-23 20:22:00,30.0,23.0,-100.00,SW,235,9.0,11.0,74,-99.99,,,-99.99,,2013-02-24 01:22:00,
2013-02-23 20:32:00,30.0,23.0,-100.00,WSW,245,7.0,13.0,74,-99.99,,,-99.99,,2013-02-24 01:32:00,
2013-02-23 20:42:00,30.0,23.0,-100.00,WSW,250,9.0,12.0,74,-99.99,,,-99.99,,2013-02-24 01:42:00,
2013-02-23 20:51:00,30.0,23.0,-100.00,SW,235,12.0,16.0,73,-99.99,,,-99.99,,2013-02-24 01:51:00,
2013-02-23 21:01:00,30.0,23.0,-100.00,WSW,245,11.0,16.0,73,-99.99,,,-99.99,,2013-02-24 02:01:00,
2013-02-23 21:11:00,30.0,23.0,-100.00,WSW,245,9.0,16.0,73,-99.99,,,-99.99,,2013-02-24 02:11:00,
2013-02-23 21:21:00,30.0,23.0,-100.00,WSW,250,9.0,12.0,73,-99.99,,,-99.99,,2013-02-24 02:21:00,
2013-02-23 21:32:00,30.0,22.0,-100.00,SW,215,12.0,15.0,72,-99.99,,,-99.99,,2013-02-24 02:32:00,
2013-02-23 21:42:00,30.0,22.0,-100.00,WSW,240,9.0,14.0,73,-99.99,,,-99.99,,2013-02-24 02:42:00,
2013-02-23 21:52:00,30.0,23.0,-100.00,WSW,245,10.0,16.0,74,-99.99,,,-99.99,,2013-02-24 02:52:00,
2013-02-23 22:02:00,30.0,23.0,-100.00,WSW,255,7.0,12.0,74,-99.99,,,-99.99,,2013-02-24 03:02:00,
2013-02-23 22:11:00,29.0,23.0,-100.00,WSW,255,9.0,12.0,75,-99.99,,,-99.99,,2013-02-24 03:11:00,
2013-02-23 22:22:00,29.0,23.0,-100.00,WSW,255,9.0,14.0,75,-99.99,,,-99.99,,2013-02-24 03:22:00,
2013-02-23 22:32:00,29.0,22.0,-100.00,West,265,7.0,12.0,75,-99.99,,,-99.99,,2013-02-24 03:32:00,
2013-02-23 22:42:00,29.0,22.0,-100.00,West,270,11.0,14.0,75,-99.99,,,-99.99,,2013-02-24 03:42:00,
2013-02-23 22:52:00,29.0,22.0,-100.00,West,270,10.0,13.0,75,-99.99,,,-99.99,,2013-02-24 03:52:00,
2013-02-23 23:02:00,29.0,22.0,-100.00,West,275,12.0,14.0,75,-99.99,,,-99.99,,2013-02-24 04:02:00,
2013-02-23 23:11:00,29.0,22.0,-100.00,West,270,10.0,14.0,75,-99.99,,,-99.99,,2013-02-24 04:11:00,
2013-02-23 23:21:00,29.0,22.0,-100.00,West,265,9.0,13.0,75,-99.99,,,-99.99,,2013-02-24 04:21:00,
2013-02-23 23:32:00,29.0,22.0,-100.00,West,265,6.0,13.0,76,-99.99,,,-99.99,,2013-02-24 04:32:00,
2013-02-23 23:42:00,28.0,22.0,-100.00,West,260,9.0,12.0,75,-99.99,,,-99.99,,2013-02-24 04:42:00,
2013-02-23 23:52:00,28.0,22.0,-100.00,WSW,255,10.0,13.0,76,-99.99,,,-99.99,,2013-02-24 04:52:00,